Погода в Шадринске

Погода в Шадринске : погода сейчас, прогноз погоды и архив. Всё, что Вы хотите узнать о погоде в Шадринске!

Хотите узнать прогноз погоды в Шадринске? Тогда Вам сюда: Погода в Шадринске

Поиск расширенной информации на нашем сайте:

Другие новости

Новости СМИ2

Главная страница сайта

Новости сайта

02.10.2013

Напоминаем, что на нашем новом сайте вы можете получить высокодетализированные прогнозы погоды по пунктам России, СНГ и мира (включающие важные для авиации метеовеличины, такие как направление и скорость ветра, видимость, явления погоды, количество и форма облачности, нижняя и верхняя граница облачности), а также ознакомиться с разнообразными материалами по авиационной метеорологии и подборкой полезных ссылок на эту тему.

Сайт Метеоцентр.Азия посвящён разработке технологий оптимизации авиаметеорологического обслуживания, включая проектирование и перспективное создание нескольких автоматизированных авиаметеорологических систем:
- система выпуска высокодетальных прогностических карт явлений погоды для нижнего воздушного пространства по России и ближнему зарубежью;
- система верификации прогнозов TAF (выпускаемых синоптиками официальных АМСГ РФ и ближнего зарубежья) и AUTOTAF (выпускаемых сайтом Метеоцентр.Азия) - выявление ошибок, онлайн-сопоставление с фактической погодой METAR, автоматическое внесение коррективов в прогнозы при резком отклонении фактической погоды от прогноза, подсчёт оправдываемости прогнозов по элементам и в целом;
- система обработки, анализа и отображения авиаметеорологической информации для применения провайдерами метеорологической информации.


Погода в Шадринске - сегодня

Время (UTC), дата Ветер
(°,м/с) 
Видим.   Явления Облачность Т
(°С)
Тd
(°С)
f(%) Тe
(°С)
Pmin
(гПа)
dP
(гПа)
Po
(мм)
O2
(г/м3)
Тmin Tmax R s Состояние
почвы
06 23.05.17 010 (С) 4{11}  10 км  слаб. дождь  10/10 300 м 
[Frnb|Ns]
+4.5 +2.5 87 +3  1001.2  0.4  743  294           
12 23.05.17 010 (С) 10 км  слаб. дождь  10/10 300 м 
[Frnb|Ns]
+4.2 +2.2 87 +3  1004.2  1.9  745  295           
18 23.05.17 200 (Ю) 10 км  {дождь}  10/10 600 м кучево-дожд. 
[Cb cap]
+4.1 +2.1 87 +5  1006.7  0.8  747  296           
21 23.05.17 230 (ЮЗ) 10 км    10/10 600 м кучево-дожд. 
[Cb cap]
+4.7 +2.4 85 +6  1006.8  0.2  747  295           
00 24.05.17 260 (З) 10 км  в посл. час ливневой дождь  10/10 600 м кучево-дожд. 
[Cb cap]
+4.8 +2.9 87 +4  1007.5  0.6  747  295           
03 24.05.17 240 (ЮЗ) 10 км  {ливн. осадки}  9/9 600 м кучево-дожд. 
[Cb cap]
+7.1 +4.5 84 +6  1008.1  0.7  748  293  +4.1    0.8    мокрая 
06 24.05.17 270 (З) 10 км  {ливн. осадки}  8/6 600 м кучево-дожд., средняя, верхняя 
[Cb cap|Ac trans|Ci sp]
+10.6 +0.8 51 +10  1008.6  0.6  748  290           
09 24.05.17 250 (З) 10 км    8/8 600 м кучево-дожд. 
[Cb cap]
+12.6 -1.3 38 +12  1009.1  0.5  749  289           
12 24.05.17 260 (З) 3{10}  10 км    6/6 600 м кучево-дожд. 
[Cb cap]
+15.4 -3.4 27 +16  1008.6  -0.4  749  286           
18 24.05.17 220 (ЮЗ) 10 км    3/3 600 м кучево-дожд. 
[Cb cap]
+10 -1.3 45 +9  1009.6  0.3  749  291           
00 25.05.17 260 (З) 10 км  {ливн. осадки}  8/8 600 м кучево-дожд. 
[Cb cap]
+6.8 +2.5 74 +7  1012.5  1.8  751  295           
03 25.05.17 310 (СЗ) 10 км    3/3 600 м верхняя 
[Sc|Ci sp]
+9.2 -2 45 +8  1014.5  2.1  753  294  +6.4        мокрая 
06 25.05.17 290 (З) 6{10}  10 км    4/3 600 м кучево-дожд., верхняя 
[Cb cap|Ci sp]
+12.2 -2.1 37 +11  1015.8  1.3  754  291           
12 25.05.17 300 (СЗ) 4{15}  10 км    ясно 
+16.3 -6.2 21 +16  1016.9  0.1  755  288           
15 25.05.17 350 (С) 10 км    ясно 
+14.5 -5.9 24 +15  1017.6  0.6  755  290    +16.5       
18 25.05.17 070 (В) 10 км    ясно 
+5.6 +0.5 70 +6  1019.6  1.6  756  299           
21 25.05.17 070 (В) 10 км    ясно 
+3.4 +0.5 81 +4  1021.1  1.4  757  301           
00 26.05.17 070 (В) 10 км    ясно 
+2.1 +0.1 87 +3  1021.9  0.8  758  303           
03 26.05.17 140 (ЮВ) 10 км    3/0 верхняя 
[Ci sp]
+12.5 -0.1 42 +12  1021.7  0.2  758  292  +1.9        влажная 
06 26.05.17 150 (ЮВ) 10 км    6/0 верхняя 
[Ci sp]
+18.1 -0.9 28 +18  1020.6  -0.8  758  286           
09 26.05.17 190 (Ю) 5{10}  10 км    4/0 верхняя 
[Ci sp]
+22.4 +3 28 +22  1018.2  -2.2  756  281           
12 26.05.17 210 (ЮЗ) 6-10{11}  10 км    3/3 600 м верхняя 
[Sc|Ci sp]
+23.9 +4.3 28 +24  1015.9  -2.2  754  279           
18 26.05.17 180 (Ю) 10 км    8/8 600 м кучево-дожд. 
[Cb cap]
+18.3 +3.8 38 +19  1014.1  -0.5  753  284           
21 26.05.17 170 (Ю) 10 км    6/4 600 м кучево-дожд., верхняя 
[Cb cap|Ci sp]
+15.2 +4.9 50 +16  1012.7  -1.5  752  286           
00 27.05.17 110 (В) 10 км    8/5 600 м верхняя 
[Sc|Ci sp]
+12.7 +6.3 65 +14  1011.6  -1.2  751  288           
Время (UTC), дата Ветер
(°,м/с) 
Видим.   Явления Облачность Т
(°С)
Тd
(°С)
f(%) Тe
(°С)
Pmin
(гПа)
dP
(гПа)
Po
(мм)
O2
(г/м3)
Тmin Tmax R s Состояние
почвы

Для получения пояснительной информации подведите курсор к названию столбца.

ПОГОДА в Шадринске - архив

Всё, что Вы хотите узнать о погоде в Шадринске - удобно и подробно!

Выберите нужную дату (начиная с 1 января 2015* года) и нажмите кнопку "Найти".
Будут отображены архивные сводки погоды по пункту Шадринск, начиная с указанной даты.


Отображать данные в формате CSV (для использования в таблицах Excel)


Внимание! Наш архив погоды предназначен исключительно для личного некоммерческого использования в познавательных целях. Если Вам необходимы официальные справки о состоянии погоды (для производственных, юридических, коммерческих и т.п. целей), обращайтесь в органы Росгидромета.

*Примечание: данная дата относится к архиву по метеостанциям СССР (Россия, СНГ, Балтия).
Архив по метеостанциям Зарубежной Европы и Азии (кроме Китая) хранится 10 дней, по другим регионам земного шара (Китай, Африка, Америка, Австралия, Океания) - 1 день.

Шадринск - район местоположения метеостанции


Название, широта, долгота, высота метеостанции:
Шадринск 56.1°ш. 63.6°д. 89 м над ур. моря [Российская Федерация]

Дополнительная информация

В oтличие oт бoльшинства пoгoдных сайтoв мы публикуем пoдрoбную метеoинфoрмацию в детальнoм прoфессиoнальнoм фoрмате.

Характеристики температуры и влажнoсти вoздуха измеряются на высoте 2 м в тени вдали oт зданий и деревьев.
Скoрoсть ветра измеряется на высoте 10 м (на урoвне рoста челoвека скoрoсть ветра ниже в 1.5-2 раза). Если метеoстанция нахoдится в гoрoде или в лесу, тo скoрoсть ветра занижена на 2-4 м/с пo сравнению с oткрытым местoм. Скoрoсть ветра над акватoриями крупных рек и oзёр, а также на вершинах хoлмoв на 2-5 м/с выше, чем в oбычных услoвиях.
Атмoсфернoе давление в разных тoчках местнoсти мoжет значительнo oтличаться oт давления на метеoстанции, в зависимoсти oт услoвий рельефа (при пoдъёме на 10 м давление пoнижается примернo на 1 мм рт.ст.).